Time,TemperatureF,DewpointF,PressureIn,WindDirection,WindDirectionDegrees,WindSpeedMPH,WindSpeedGustMPH,Humidity,HourlyPrecipIn,Conditions,Clouds,dailyrainin,SoftwareType,DateUTC
2013-04-25 00:02:00,73.0,68.0,-100.00,North,9,3.0,8.0,85,0.00,,,0.25,,2013-04-25 10:02:00,
2013-04-25 00:12:00,73.0,68.0,-100.00,North,9,3.0,8.0,85,0.00,,,0.25,,2013-04-25 10:12:00,
2013-04-25 00:22:00,73.0,68.0,-100.00,North,9,3.0,8.0,85,0.00,,,0.25,,2013-04-25 10:22:00,
2013-04-25 00:32:00,73.0,68.0,-100.00,North,9,3.0,8.0,85,0.00,,,0.25,,2013-04-25 10:32:00,
2013-04-25 00:41:00,72.0,67.0,-100.00,WNW,303,3.0,5.0,85,0.00,,,0.24,,2013-04-25 10:41:00,
2013-04-25 01:02:00,72.0,67.0,-100.00,WNW,303,3.0,5.0,85,0.00,,,0.24,,2013-04-25 11:02:00,
2013-04-25 01:12:00,72.0,67.0,-100.00,WNW,303,3.0,5.0,85,0.00,,,0.24,,2013-04-25 11:12:00,
2013-04-25 01:22:00,72.0,67.0,-100.00,WNW,303,3.0,5.0,85,0.00,,,0.24,,2013-04-25 11:22:00,
2013-04-25 01:32:00,72.0,67.0,-100.00,WNW,303,3.0,5.0,85,0.00,,,0.24,,2013-04-25 11:32:00,
2013-04-25 01:41:00,72.0,68.0,-100.00,NNW,333,3.0,5.0,86,0.00,,,0.23,,2013-04-25 11:41:00,
2013-04-25 02:01:00,72.0,68.0,-100.00,NNW,333,3.0,5.0,86,0.00,,,0.23,,2013-04-25 12:01:00,
2013-04-25 02:12:00,72.0,68.0,-100.00,NNW,333,3.0,5.0,86,0.00,,,0.23,,2013-04-25 12:12:00,
2013-04-25 02:21:00,72.0,68.0,-100.00,NNW,333,3.0,5.0,86,0.00,,,0.23,,2013-04-25 12:21:00,
2013-04-25 02:31:00,72.0,68.0,-100.00,NNW,333,3.0,5.0,86,0.00,,,0.23,,2013-04-25 12:31:00,
2013-04-25 02:41:00,71.0,67.0,-100.00,NNW,342,4.0,7.0,87,0.00,,,0.18,,2013-04-25 12:41:00,
2013-04-25 03:02:00,71.0,67.0,-100.00,NNW,342,4.0,7.0,87,0.00,,,0.18,,2013-04-25 13:02:00,
2013-04-25 03:11:00,71.0,67.0,-100.00,NNW,342,4.0,7.0,87,0.00,,,0.18,,2013-04-25 13:11:00,
2013-04-25 03:21:00,71.0,67.0,-100.00,NNW,342,4.0,7.0,87,0.00,,,0.18,,2013-04-25 13:21:00,
2013-04-25 03:31:00,71.0,67.0,-100.00,NNW,342,4.0,7.0,87,0.00,,,0.18,,2013-04-25 13:31:00,
2013-04-25 03:41:00,71.0,67.0,-100.00,NNE,22,2.0,7.0,86,0.00,,,0.16,,2013-04-25 13:41:00,
2013-04-25 04:01:00,71.0,67.0,-100.00,NNE,22,2.0,7.0,86,0.00,,,0.16,,2013-04-25 14:01:00,
2013-04-25 04:11:00,71.0,67.0,-100.00,NNE,22,2.0,7.0,86,0.00,,,0.16,,2013-04-25 14:11:00,
2013-04-25 04:21:00,71.0,67.0,-100.00,NNE,22,2.0,7.0,86,0.00,,,0.16,,2013-04-25 14:21:00,
2013-04-25 04:32:00,71.0,67.0,-100.00,NNE,22,2.0,7.0,86,0.00,,,0.16,,2013-04-25 14:32:00,
2013-04-25 04:41:00,71.0,67.0,-100.00,East,88,4.0,6.0,88,0.00,,,0.13,,2013-04-25 14:41:00,
2013-04-25 05:02:00,71.0,67.0,-100.00,East,88,4.0,6.0,88,0.00,,,0.13,,2013-04-25 15:02:00,
2013-04-25 05:11:00,71.0,67.0,-100.00,East,88,4.0,6.0,88,0.00,,,0.13,,2013-04-25 15:11:00,
2013-04-25 05:21:00,71.0,67.0,-100.00,East,88,4.0,6.0,88,0.00,,,0.13,,2013-04-25 15:21:00,
2013-04-25 05:33:00,71.0,67.0,-100.00,East,88,4.0,6.0,88,0.00,,,0.13,,2013-04-25 15:33:00,
2013-04-25 05:41:00,70.0,66.0,-100.00,NW,309,1.0,5.0,87,0.00,,,0.05,,2013-04-25 15:41:00,
2013-04-25 06:02:00,70.0,66.0,-100.00,NW,309,1.0,5.0,87,0.00,,,0.05,,2013-04-25 16:02:00,
2013-04-25 06:13:00,70.0,66.0,-100.00,NW,309,1.0,5.0,87,0.00,,,0.05,,2013-04-25 16:13:00,
2013-04-25 06:24:00,70.0,66.0,-100.00,NW,309,1.0,5.0,87,0.00,,,0.05,,2013-04-25 16:24:00,
2013-04-25 06:32:00,70.0,66.0,-100.00,NW,309,1.0,5.0,87,0.00,,,0.05,,2013-04-25 16:32:00,
2013-04-25 06:41:00,71.0,68.0,-100.00,NNE,17,2.0,5.0,89,0.00,,,0.04,,2013-04-25 16:41:00,
2013-04-25 07:02:00,71.0,68.0,-100.00,NNE,17,2.0,5.0,89,0.00,,,0.04,,2013-04-25 17:02:00,
2013-04-25 07:11:00,71.0,68.0,-100.00,NNE,17,2.0,5.0,89,0.00,,,0.04,,2013-04-25 17:11:00,
2013-04-25 07:22:00,71.0,68.0,-100.00,NNE,17,2.0,5.0,89,0.00,,,0.04,,2013-04-25 17:22:00,
2013-04-25 07:32:00,71.0,68.0,-100.00,NNE,17,2.0,5.0,89,0.00,,,0.04,,2013-04-25 17:32:00,
2013-04-25 07:41:00,76.0,71.0,-100.00,NNE,25,3.0,7.0,85,0.00,,,0.02,,2013-04-25 17:41:00,
2013-04-25 08:01:00,76.0,71.0,-100.00,NNE,25,3.0,7.0,85,0.00,,,0.02,,2013-04-25 18:01:00,
2013-04-25 08:11:00,76.0,71.0,-100.00,NNE,25,3.0,7.0,85,0.00,,,0.02,,2013-04-25 18:11:00,
2013-04-25 08:21:00,76.0,71.0,-100.00,NNE,25,3.0,7.0,85,0.00,,,0.02,,2013-04-25 18:21:00,
2013-04-25 08:31:00,76.0,71.0,-100.00,NNE,25,3.0,7.0,85,0.00,,,0.02,,2013-04-25 18:31:00,
2013-04-25 08:41:00,78.0,71.0,-100.00,NE,51,4.0,7.0,79,0.00,,,0.02,,2013-04-25 18:41:00,
2013-04-25 09:01:00,78.0,71.0,-100.00,NE,51,4.0,7.0,79,0.00,,,0.02,,2013-04-25 19:01:00,
2013-04-25 09:12:00,78.0,71.0,-100.00,NE,51,4.0,7.0,79,0.00,,,0.02,,2013-04-25 19:12:00,
2013-04-25 09:21:00,78.0,71.0,-100.00,NE,51,4.0,7.0,79,0.00,,,0.02,,2013-04-25 19:21:00,
2013-04-25 09:31:00,78.0,71.0,-100.00,NE,51,4.0,7.0,79,0.00,,,0.02,,2013-04-25 19:31:00,
2013-04-25 09:41:00,80.0,71.0,-100.00,ENE,65,6.0,11.0,73,0.00,,,0.02,,2013-04-25 19:41:00,
2013-04-25 10:01:00,80.0,71.0,-100.00,ENE,65,6.0,11.0,73,0.00,,,0.02,,2013-04-25 20:01:00,
2013-04-25 10:11:00,80.0,71.0,-100.00,ENE,65,6.0,11.0,73,0.00,,,0.02,,2013-04-25 20:11:00,
2013-04-25 10:22:00,80.0,71.0,-100.00,ENE,65,6.0,11.0,73,0.00,,,0.02,,2013-04-25 20:22:00,
2013-04-25 10:32:00,80.0,71.0,-100.00,ENE,65,6.0,11.0,73,0.00,,,0.02,,2013-04-25 20:32:00,
2013-04-25 10:41:00,81.0,69.0,-100.00,East,79,7.0,13.0,68,0.00,,,0.02,,2013-04-25 20:41:00,
2013-04-25 11:01:00,81.0,69.0,-100.00,East,79,7.0,13.0,68,0.00,,,0.02,,2013-04-25 21:01:00,
2013-04-25 11:11:00,81.0,69.0,-100.00,East,79,7.0,13.0,68,0.00,,,0.02,,2013-04-25 21:11:00,
2013-04-25 11:21:00,81.0,69.0,-100.00,East,79,7.0,13.0,68,0.00,,,0.02,,2013-04-25 21:21:00,
2013-04-25 11:33:00,81.0,69.0,-100.00,East,79,7.0,13.0,68,0.00,,,0.02,,2013-04-25 21:33:00,
2013-04-25 11:41:00,81.0,67.0,-100.00,ENE,74,6.0,12.0,63,0.00,,,0.02,,2013-04-25 21:41:00,
2013-04-25 12:02:00,81.0,67.0,-100.00,ENE,74,6.0,12.0,63,0.00,,,0.02,,2013-04-25 22:02:00,
2013-04-25 12:12:00,81.0,67.0,-100.00,ENE,74,6.0,12.0,63,0.00,,,0.02,,2013-04-25 22:12:00,
2013-04-25 12:22:00,81.0,67.0,-100.00,ENE,74,6.0,12.0,63,0.00,,,0.02,,2013-04-25 22:22:00,
2013-04-25 12:32:00,81.0,67.0,-100.00,ENE,74,6.0,12.0,63,0.00,,,0.02,,2013-04-25 22:32:00,
2013-04-25 12:41:00,82.0,67.0,-100.00,ENE,71,9.0,17.0,60,0.00,,,0.02,,2013-04-25 22:41:00,
2013-04-25 13:02:00,82.0,67.0,-100.00,ENE,71,9.0,17.0,60,0.00,,,0.02,,2013-04-25 23:02:00,
2013-04-25 13:12:00,82.0,67.0,-100.00,ENE,71,9.0,17.0,60,0.00,,,0.02,,2013-04-25 23:12:00,
2013-04-25 13:22:00,82.0,67.0,-100.00,ENE,71,9.0,17.0,60,0.00,,,0.02,,2013-04-25 23:22:00,
2013-04-25 13:32:00,82.0,67.0,-100.00,ENE,71,9.0,17.0,60,0.00,,,0.02,,2013-04-25 23:32:00,
2013-04-25 13:41:00,81.0,65.0,-100.00,East,85,10.0,17.0,59,0.00,,,0.02,,2013-04-25 23:41:00,
2013-04-25 14:01:00,81.0,65.0,-100.00,East,85,10.0,17.0,59,0.00,,,0.02,,2013-04-26 00:01:00,
2013-04-25 14:11:00,81.0,65.0,-100.00,East,85,10.0,17.0,59,0.00,,,0.02,,2013-04-26 00:11:00,
2013-04-25 14:21:00,81.0,65.0,-100.00,East,85,10.0,17.0,59,0.00,,,0.02,,2013-04-26 00:21:00,
2013-04-25 14:31:00,81.0,65.0,-100.00,East,85,10.0,17.0,59,0.00,,,0.02,,2013-04-26 00:31:00,
2013-04-25 14:41:00,81.0,66.0,-100.00,East,88,10.0,16.0,60,0.00,,,0.02,,2013-04-26 00:41:00,
2013-04-25 15:01:00,81.0,66.0,-100.00,East,88,10.0,16.0,60,0.00,,,0.02,,2013-04-26 01:01:00,
2013-04-25 15:11:00,81.0,66.0,-100.00,East,88,10.0,16.0,60,0.00,,,0.02,,2013-04-26 01:11:00,
2013-04-25 15:21:00,81.0,66.0,-100.00,East,88,10.0,16.0,60,0.00,,,0.02,,2013-04-26 01:21:00,
2013-04-25 15:31:00,81.0,66.0,-100.00,East,88,10.0,16.0,60,0.00,,,0.02,,2013-04-26 01:31:00,
2013-04-25 15:41:00,81.0,65.0,-100.00,ENE,60,9.0,17.0,59,0.00,,,0.02,,2013-04-26 01:41:00,
2013-04-25 16:01:00,81.0,65.0,-100.00,ENE,60,9.0,17.0,59,0.00,,,0.02,,2013-04-26 02:01:00,
2013-04-25 16:11:00,81.0,65.0,-100.00,ENE,60,9.0,17.0,59,0.00,,,0.02,,2013-04-26 02:11:00,
2013-04-25 16:21:00,81.0,65.0,-100.00,ENE,60,9.0,17.0,59,0.00,,,0.02,,2013-04-26 02:21:00,
2013-04-25 16:31:00,81.0,65.0,-100.00,ENE,60,9.0,17.0,59,0.00,,,0.02,,2013-04-26 02:31:00,
2013-04-25 16:41:00,80.0,65.0,-100.00,ENE,70,8.0,16.0,60,0.00,,,0.02,,2013-04-26 02:41:00,
2013-04-25 17:01:00,80.0,65.0,-100.00,ENE,70,8.0,16.0,60,0.00,,,0.02,,2013-04-26 03:01:00,
2013-04-25 17:11:00,80.0,65.0,-100.00,ENE,70,8.0,16.0,60,0.00,,,0.02,,2013-04-26 03:11:00,
2013-04-25 17:21:00,80.0,65.0,-100.00,ENE,70,8.0,16.0,60,0.00,,,0.02,,2013-04-26 03:21:00,
2013-04-25 17:32:00,80.0,65.0,-100.00,ENE,70,8.0,16.0,60,0.00,,,0.02,,2013-04-26 03:32:00,
2013-04-25 17:41:00,80.0,66.0,-100.00,ENE,78,9.0,16.0,63,0.00,,,0.02,,2013-04-26 03:41:00,
2013-04-25 18:02:00,80.0,66.0,-100.00,ENE,78,9.0,16.0,63,0.00,,,0.02,,2013-04-26 04:02:00,
2013-04-25 18:12:00,80.0,66.0,-100.00,ENE,78,9.0,16.0,63,0.00,,,0.02,,2013-04-26 04:12:00,
2013-04-25 18:22:00,80.0,66.0,-100.00,ENE,78,9.0,16.0,63,0.00,,,0.02,,2013-04-26 04:22:00,
2013-04-25 18:32:00,80.0,66.0,-100.00,ENE,78,9.0,16.0,63,0.00,,,0.02,,2013-04-26 04:32:00,
2013-04-25 18:41:00,77.0,63.0,-100.00,East,79,9.0,15.0,62,0.00,,,0.02,,2013-04-26 04:41:00,
2013-04-25 19:02:00,77.0,63.0,-100.00,East,79,9.0,15.0,62,0.00,,,0.02,,2013-04-26 05:02:00,
2013-04-25 19:12:00,77.0,63.0,-100.00,East,79,9.0,15.0,62,0.00,,,0.02,,2013-04-26 05:12:00,
2013-04-25 19:22:00,77.0,63.0,-100.00,East,79,9.0,15.0,62,0.00,,,0.02,,2013-04-26 05:22:00,
2013-04-25 19:32:00,77.0,63.0,-100.00,East,79,9.0,15.0,62,0.00,,,0.02,,2013-04-26 05:32:00,
2013-04-25 19:41:00,76.0,64.0,-100.00,ENE,67,7.0,14.0,66,0.00,,,0.01,,2013-04-26 05:41:00,
2013-04-25 20:02:00,76.0,64.0,-100.00,ENE,67,7.0,14.0,66,0.00,,,0.01,,2013-04-26 06:02:00,
2013-04-25 20:11:00,76.0,64.0,-100.00,ENE,67,7.0,14.0,66,0.00,,,0.01,,2013-04-26 06:11:00,
2013-04-25 20:21:00,76.0,64.0,-100.00,ENE,67,7.0,14.0,66,0.00,,,0.01,,2013-04-26 06:21:00,
2013-04-25 20:32:00,76.0,64.0,-100.00,ENE,67,7.0,14.0,66,0.00,,,0.01,,2013-04-26 06:32:00,
2013-04-25 20:41:00,76.0,65.0,-100.00,ENE,64,7.0,12.0,68,0.00,,,0.01,,2013-04-26 06:41:00,
2013-04-25 21:01:00,76.0,65.0,-100.00,ENE,64,7.0,12.0,68,0.00,,,0.01,,2013-04-26 07:01:00,
2013-04-25 21:11:00,76.0,65.0,-100.00,ENE,64,7.0,12.0,68,0.00,,,0.01,,2013-04-26 07:11:00,
2013-04-25 21:22:00,76.0,65.0,-100.00,ENE,64,7.0,12.0,68,0.00,,,0.01,,2013-04-26 07:22:00,
2013-04-25 21:31:00,76.0,65.0,-100.00,ENE,64,7.0,12.0,68,0.00,,,0.01,,2013-04-26 07:31:00,
2013-04-25 21:41:00,75.0,64.0,-100.00,ENE,65,7.0,12.0,69,0.00,,,0.00,,2013-04-26 07:41:00,
2013-04-25 22:02:00,75.0,64.0,-100.00,ENE,65,7.0,12.0,69,0.00,,,0.00,,2013-04-26 08:02:00,
2013-04-25 22:11:00,75.0,64.0,-100.00,ENE,65,7.0,12.0,69,0.00,,,0.00,,2013-04-26 08:11:00,
2013-04-25 22:21:00,75.0,64.0,-100.00,ENE,65,7.0,12.0,69,0.00,,,0.00,,2013-04-26 08:21:00,
2013-04-25 22:31:00,75.0,64.0,-100.00,ENE,65,7.0,12.0,69,0.00,,,0.00,,2013-04-26 08:31:00,
2013-04-25 22:41:00,75.0,64.0,-100.00,NE,42,8.0,14.0,69,0.00,,,0.00,,2013-04-26 08:41:00,
2013-04-25 23:01:00,75.0,64.0,-100.00,NE,42,8.0,14.0,69,0.00,,,0.00,,2013-04-26 09:01:00,
2013-04-25 23:11:00,75.0,64.0,-100.00,NE,42,8.0,14.0,69,0.00,,,0.00,,2013-04-26 09:11:00,
2013-04-25 23:21:00,75.0,64.0,-100.00,NE,42,8.0,14.0,69,0.00,,,0.00,,2013-04-26 09:21:00,
2013-04-25 23:32:00,75.0,64.0,-100.00,NE,42,8.0,14.0,69,0.00,,,0.00,,2013-04-26 09:32:00,
2013-04-25 23:41:00,74.0,64.0,-100.00,NE,36,7.0,11.0,71,0.00,,,0.00,,2013-04-26 09:41:00,